CW5376 Weather Reports


Display with metric or nautical units.
time (UTC)temp
F
wind
direction
speed
MPH
gust
MPH
rain 1hr
in
rain 24hr
in
rain mn
in
humidity
%
barometer
mb
20260831193001 83 302 12.0 21.0 0.00 0.00 0.00 38 1022.9
20260831191501 84 279 12.0 23.0 0.00 0.00 0.00 37 1022.7
20260831190001 85 295 11.0 20.0 0.00 0.00 0.00 36 1022.7
20260831184501 86 284 8.0 13.0 0.00 0.00 0.00 31 1022.6
20260831183001 85 289 8.0 13.0 0.00 0.00 0.00 32 1022.9
20260831181500 85 267 9.0 13.0 0.00 0.00 0.00 32 1023.0
20260831174459 86 227 7.0 13.0 0.00 0.00 0.00 31 1023.1
20260831173000 86 265 6.0 14.0 0.00 0.00 0.00 31 1023.0
20260831170001 85 149 8.0 16.0 0.00 0.00 0.00 29 1022.9
20260831164500 84 66 12.0 18.0 0.00 0.00 0.00 29 1022.9
20260831163000 84 117 12.0 18.0 0.00 0.00 0.00 29 1022.5
20260831161500 83 63 13.0 23.0 0.00 0.00 0.00 30 1022.3
20260831160001 83 119 13.0 22.0 0.00 0.00 0.00 30 1022.2
20260831154459 81 115 13.0 22.0 0.00 0.00 0.00 32 1021.9
20260831151500 79 88 16.0 25.0 0.00 0.00 0.00 36 1021.8
20260831150003 78 121 16.0 26.0 0.00 0.00 0.00 38 1021.8
20260831144501 76 117 19.0 27.0 0.00 0.00 0.00 40 1021.8
20260831143001 76 103 16.0 24.0 0.00 0.00 0.00 40 1021.9
20260831141500 74 98 16.0 30.0 0.00 0.00 0.00 42 1021.9
20260831140002 71 96 15.0 23.0 0.00 0.00 0.00 47 1021.9
20260831131500 67 120 6.0 9.0 0.00 0.00 0.00 53 1022.3
20260831124500 68 95 3.0 5.0 0.00 0.00 0.00 52 1022.4
20260831121459 69 312 8.0 17.0 0.00 0.00 0.00 51 1022.4
20260831120002 69 302 7.0 13.0 0.00 0.00 0.00 52 1022.5
20260831114459 69 325 9.0 19.0 0.00 0.00 0.00 52 1022.4
20260831113000 70 360 12.0 22.0 0.00 0.00 0.00 53 1022.5
20260831111500 69 302 11.0 21.0 0.00 0.00 0.00 55 1022.5
20260831105959 69 292 7.0 14.0 0.00 0.00 0.00 56 1022.9
20260831104459 69 265 4.0 6.0 0.00 0.00 0.00 51 1023.0
20260831102959 68 263 3.0 5.0 0.00 0.00 0.00 49 1023.0
20260831101458 68 325 1.0 2.0 0.00 0.00 0.00 47 1023.0
20260831100000 68 22 5.0 7.0 0.00 0.00 0.00 47 1022.6
20260831094500 68 98 4.0 9.0 0.00 0.00 0.00 46 1022.3
20260831092959 69 67 7.0 9.0 0.00 0.00 0.00 46 1021.8
20260831091458 70 89 7.0 11.0 0.00 0.00 0.00 45 1021.7
20260831082959 72 225 5.0 7.0 0.00 0.00 0.00 46 1021.3
20260831081459 73 186 6.0 11.0 0.00 0.00 0.00 46 1021.6
20260831080000 73 211 6.0 9.0 0.00 0.00 0.00 45 1021.7
20260831074500 74 250 5.0 8.0 0.00 0.00 0.00 43 1021.8
20260831071500 73 143 3.0 6.0 0.00 0.00 0.00 44 1021.8
20260831070004 73 38 3.0 4.0 0.00 0.00 0.00 42 1021.8
20260831064503 73 92 2.0 7.0 0.00 0.00 0.00 42 1021.8
20260831063003 73 184 3.0 5.0 0.00 0.00 0.00 44 1021.9
20260831060002 73 237 3.0 5.0 0.00 0.00 0.00 41 1021.8
20260831054501 73 247 1.0 4.0 0.00 0.00 0.00 40 1021.7
20260831053003 74 180 4.0 7.0 0.00 0.00 0.00 39 1021.5
20260831051502 74 60 6.0 7.0 0.00 0.00 0.00 39 1021.2
20260831044502 75 109 4.0 7.0 0.00 0.00 0.00 39 1021.1
20260831033001 77 110 4.0 5.0 0.00 0.00 0.00 37 1020.9
20260831031501 78 5 3.0 7.0 0.00 0.00 0.00 37 1020.8
20260831030001 78 232 3.0 5.0 0.00 0.00 0.00 36 1020.8
20260831024501 79 200 5.0 7.0 0.00 0.00 0.00 35 1020.7
20260831023001 79 136 2.0 5.0 0.00 0.00 0.00 35 1020.7
20260831021502 79 5 3.0 7.0 0.00 0.00 0.00 36 1020.7
20260831014501 82 288 10.0 21.0 0.00 0.00 0.00 31 1020.5
20260831013001 83 221 6.0 8.0 0.00 0.00 0.00 29 1020.0
20260831011501 84 238 7.0 10.0 0.00 0.00 0.00 31 1019.9
20260831010001 85 241 8.0 13.0 0.00 0.00 0.00 29 1019.9
20260831003002 87 288 3.0 6.0 0.00 0.00 0.00 26 1019.6
20260831001502 87 232 3.0 5.0 0.00 0.00 0.00 25 1019.8
20260831000001 87 216 4.0 7.0 0.00 0.00 0.00 24 1019.9
20260830234501 88 251 4.0 7.0 0.00 0.00 0.00 24 1019.9
20260830233001 88 277 5.0 10.0 0.00 0.00 0.00 24 1019.9
20260830231502 89 225 4.0 10.0 0.00 0.00 0.00 25 1019.9
20260830230004 88 290 5.0 12.0 0.00 0.00 0.00 25 1019.9
20260830224502 89 261 5.0 10.0 0.00 0.00 0.00 25 1019.7
20260830223002 89 263 8.0 18.0 0.00 0.00 0.00 24 1019.9
20260830221501 90 5 5.0 12.0 0.00 0.00 0.00 26 1020.1
20260830220001 89 269 9.0 14.0 0.00 0.00 0.00 28 1020.5
20260830214502 89 349 7.0 13.0 0.00 0.00 0.00 28 1020.5
20260830213002 90 198 5.0 11.0 0.00 0.00 0.00 27 1020.5
20260830211502 90 222 8.0 12.0 0.00 0.00 0.00 27 1020.9
20260830210002 89 128 5.0 11.0 0.00 0.00 0.00 28 1021.1
20260830204501 88 276 8.0 13.0 0.00 0.00 0.00 30 1021.5
20260830203000 88 273 6.0 13.0 0.00 0.00 0.00 29 1021.8
20260830201501 87 222 8.0 13.0 0.00 0.00 0.00 28 1021.9
20260830200003 87 209 8.0 15.0 0.00 0.00 0.00 30 1022.0
20260830194501 87 275 6.0 12.0 0.00 0.00 0.00 31 1022.3